Regional Weather Roundup
Issued by NWS

Home | Current Version | Previous Version | Graphics & Text | Print | Product List | Glossary On
Versions: 1 2 3 4 5 6 7 8 9 10 11 12 13 14 15 16 17 18 19 20 21 22 23 24 25 26 27
000
ASUS45 KBOU 190207
RWRCO

WEATHER ROUNDUP FOR COLORADO
NATIONAL WEATHER SERVICE DENVER/BOULDER CO
800 PM MDT MON SEP 18 2017

NOTE: "FAIR" INDICATES FEW OR NO CLOUDS BELOW 12000 FEET WITH NO
SIGNIFICANT WEATHER AND/OR OBSTRUCTIONS TO VISIBILITY.

COZ001>005-013-030-031-190300-
...NORTHWEST COLORADO...

CITY           SKY/WX    TMP DP  RH WIND       PRES   REMARKS
CRAIG          FAIR      61  31  32 SW9       29.94F
HAYDEN         FAIR      62  30  29 S8        29.98F
MEEKER         FAIR      68  34  28 SW12      29.98R
RABBIT EARS PA FAIR      48  30  49 SW8G21    30.24S
STEAMBOAT SPGS FAIR      65  31  28 CALM      30.00S
WALDEN         FAIR      55  25  30 S5        30.09S
$$

COZ006>008-011-190300-
...WEST CENTRAL VALLEYS...

CITY           SKY/WX    TMP DP  RH WIND       PRES   REMARKS
GRAND JUNCTION FAIR      74  36  25 S6        29.90S
MONTROSE       FAIR      69  25  19 W7        30.02R
EAGLE          NOT AVBL
RIFLE          FAIR      74  24  15 SW10      29.94R
DELTA          FAIR      74  23  15 MISG      29.96S
NUCLA          FAIR      68  23  18 S6        30.05S
$$

COZ017>023-064>068-190300-
...SOUTHWEST COLORADO...

CITY           SKY/WX    TMP DP  RH WIND       PRES   REMARKS
DURANGO        FAIR      61  29  29 N3        30.11F
CORTEZ         FAIR      61  35  37 CALM      30.04S
PAGOSA SPRINGS FAIR      54  26  33 CALM      30.19F
TELLURIDE      FAIR      59  19  21 SE12G21   30.25S
WOLF CREEK PAS FAIR      41  14  33 SW22G33   30.44F
$$

COZ009-010-012-014-032>034-037-058>063-190300-
...CENTRAL COLORADO...

CITY           SKY/WX    TMP DP  RH WIND       PRES   REMARKS
ASPEN          FAIR      59  33  37 SW7       30.08S
BUENA VISTA    FAIR      62  34  36 S10       30.11S
COPPER MTN     FAIR      50  27  40 S14       30.37F
BERTHOUD PASS  FAIR      41  32  70 W10G16    30.39S
COTTONWOOD PAS FAIR      59  27  29 SW6       30.25S
GUNNISON       FAIR      60  31  33 NW6       30.12R
KREMMLING      FAIR      63  28  27 CALM      30.06S
LEADVILLE      FAIR      52  24  33 S6        30.22S
MONARCH PASS   FAIR      45  32  61 SW18      30.49S
SALIDA         FAIR      67  29  24 S7        30.16R
SUNLIGHT       FAIR      45  23  42 SW21G37   30.30R
WILKERSON PASS FAIR      46  32  57 S7        30.35F
$$

COZ069>075-190300-
...SAN LUIS VALLEY/SANGRE DE CRISTO MOUNTAINS...

CITY           SKY/WX    TMP DP  RH WIND       PRES   REMARKS
ALAMOSA        FAIR      54  29  38 SW5       30.14S
DEL NORTE      FAIR      60  21  22 SW13      30.18R
LA VETA PASS   FAIR      52  21  30 S22G37    30.39S
SAGUACHE       FAIR      61  30  31 CALM      30.14R
$$

COZ035-036-038>040-190300-
...NORTHERN COLORADO FRONT RANGE...

CITY           SKY/WX    TMP DP  RH WIND       PRES   REMARKS
DENVER INTL AP FAIR      67  29  24 E14       29.87F
DMNS CITY PARK   N/A     69  35  28 SE12      29.86R
AURORA         PTCLDY    67  36  31 SE15      29.89F
FRONT RANGE AP PTCLDY    68  32  26 E15G22    29.91F
ERIE MUNI ARPT FAIR      72  24  16 E7        29.90F
BOULDER MUN AP FAIR      68  37  32 W5        29.88S
CENTENNIAL     FAIR      69  31  24 S12       29.90F
BROOMFIELD     PTCLDY    72  27  18 NE8       29.90S
FORT COLLINS   FAIR      69  33  26 E8        29.88S
LONGMONT       FAIR      65  41  41 NW7       29.89R
$$

COZ041-046-047-076>085-087-088-190300-
...PIKES PEAK/PALMER DIVIDE AND SOUTHERN FOOTHILLS...

CITY           SKY/WX    TMP DP  RH WIND       PRES   REMARKS
COLO. SPRINGS  FAIR      69  34  27 SE9       30.00S
A. F. ACADEMY  FAIR      65  31  27 S10       30.01R
SCHRIEVER AFB  FAIR      63  34  33 SE9       30.01S
CHEYENNE MTN   NOT AVBL
ELLICOTT       NOT AVBL
FALCON         FAIR      63  31  30 S10       30.06R
FORT CARSON    FAIR      69  33  26 SW5       29.97R
LIMON            N/A    N/A N/A N/A MISG      29.95S
MONUMENT HILL  FAIR      61  32  33 S14       30.05R
CANON CITY     CLEAR     72  37  28 NE5       29.93S
WALSENBURG     FAIR      72  21  15 SW14      30.00S
TRINIDAD       FAIR      61  42  49 SW10      29.99R
$$

COZ042>045-048>051-090-091-190300-
...NORTHEAST COLORADO...

CITY           SKY/WX    TMP DP  RH WIND       PRES   REMARKS
GREELEY ARPT   FAIR      65  39  38 E9        29.86S
AKRON          FAIR      68  33  27 SE12      29.91S
BURLINGTON     FAIR      65  46  50 SE9       29.92S
WRAY           FAIR      70  39  32 E8        29.89R
YUMA           FAIR      61  34  36 SE7       29.89S
STERLING       FAIR      64  41  42 SE5       29.84F
HOLYOKE        FAIR      70  43  37 SE12      29.88S
FORT MORGAN    FAIR      64  33  31 E8        29.87F
$$

COZ086-089-092>099-190300-
...SOUTHEAST COLORADO...

CITY           SKY/WX    TMP DP  RH WIND       PRES   REMARKS
PUEBLO         FAIR      70  31  23 NE8       29.88S
LA JUNTA       FAIR      72  39  30 SE5       29.88S
LAMAR          FAIR      70  40  33 SE9       29.86S
SPRINGFIELD      N/A     65  57  75 SE8       29.93S
$$




USA.gov is the U.S. government's official web portal to all federal, state and local government web resources and services.